This is the latest recevied weather packets stored in our database for station/object AE5HO. If no packets are shown the sender has not sent any weather packets the latest 1 day(s).
| Time | Temp. | Humidity | Pressure | Rain* | Wind** | Luminosity | Snow |
|---|---|---|---|---|---|---|---|
| 1778009115 | 30.56° C | 64% | 1005 hPa | 0 mm | 0 m/s | 104 W/m² | - |
| 1778008812 | 30.56° C | 64% | 1004.8 hPa | 0 mm | 0.89 m/s, 236° | 84 W/m² | - |
| 1778008510 | 30° C | 64% | 1005 hPa | 0 mm | 1.34 m/s, 270° | 83 W/m² | - |
| 1778008208 | 30° C | 66% | 1004.8 hPa | 0 mm | 0.89 m/s, 253° | 84 W/m² | - |
| 1778007903 | 29.44° C | 66% | 1004.6 hPa | 0 mm | 0.45 m/s, 262° | 84 W/m² | - |
| 1778007598 | 29.44° C | 66% | 1004.7 hPa | 0 mm | 0.89 m/s, 201° | 127 W/m² | - |
| 1778007296 | 29.44° C | 67% | 1004.8 hPa | 0 mm | 2.24 m/s, 255° | 148 W/m² | - |
| 1778006992 | 29.44° C | 67% | 1004.8 hPa | 0 mm | 0 m/s | 153 W/m² | - |
| 1778006689 | 29.44° C | 68% | 1004.8 hPa | 0 mm | 0 m/s | 166 W/m² | - |
| 1778006385 | 28.89° C | 68% | 1005 hPa | 0 mm | 0.89 m/s, 265° | 198 W/m² | - |
| 1778006082 | 28.89° C | 69% | 1005 hPa | 0 mm | 0 m/s | 201 W/m² | - |
| 1778005779 | 28.89° C | 69% | 1005.3 hPa | 0 mm | 1.34 m/s, 262° | 208 W/m² | - |
| 1778005476 | 28.33° C | 69% | 1005.1 hPa | 0 mm | 1.34 m/s, 216° | 196 W/m² | - |
| 1778005172 | 28.89° C | 69% | 1005 hPa | 0 mm | 0.89 m/s, 201° | 196 W/m² | - |
| 1778004870 | 28.33° C | 69% | 1005 hPa | 0 mm | 1.34 m/s, 277° | 210 W/m² | - |
| 1778004566 | 28.33° C | 68% | 1005.3 hPa | 0 mm | 1.34 m/s, 262° | 213 W/m² | - |
| 1778004263 | 28.89° C | 68% | 1005 hPa | 0 mm | 1.79 m/s, 257° | 208 W/m² | - |
| 1778003959 | 28.89° C | 69% | 1005.2 hPa | 0 mm | 0.89 m/s, 270° | 214 W/m² | - |
| 1778003656 | 28.89° C | 69% | 1005.1 hPa | 0 mm | 0 m/s | 223 W/m² | - |
| 1778003352 | 28.33° C | 68% | 1005 hPa | 0 mm | 2.24 m/s, 270° | 215 W/m² | - |
| 1778003050 | 28.33° C | 68% | 1004.9 hPa | 0 mm | 0.45 m/s, 278° | 220 W/m² | - |
| 1778002746 | 28.89° C | 67% | 1005.2 hPa | 0 mm | 0.89 m/s, 225° | 229 W/m² | - |
| 1778002442 | 28.33° C | 69% | 1005 hPa | 0 mm | 2.68 m/s, 268° | 273 W/m² | - |
| 1778002139 | 28.33° C | 71% | 1005 hPa | 0 mm | 0 m/s | 262 W/m² | - |
| 1778001837 | 27.78° C | 70% | 1005 hPa | 0 mm | 0.45 m/s, 270° | 231 W/m² | - |
* Rain latest hour (hover to see other rain measurements)
** Current wind speed in m/s (hover to see current wind gust speed)